HP3ICC-13 Weather Reports


Display with metric or nautical units.
time (UTC)temp
F
wind
direction
speed
MPH
gust
MPH
rain 1hr
in
rain 24hr
in
rain mn
in
humidity
%
barometer
mb
20260503022212 81 197 3.0 4.0 0.13 0.00 0.00 74 1012.0
20260503022112 81 197 3.0 4.0 0.13 0.00 0.00 74 1012.0
20260503020211 81 197 3.0 4.0 0.11 0.00 0.00 74 1012.0
20260503020111 81 197 3.0 4.0 0.11 0.00 0.00 74 1012.0
20260503014211 81 197 3.0 4.0 0.11 0.00 0.00 74 1012.0
20260503014111 81 197 3.0 4.0 0.11 0.00 0.00 74 1012.0
20260503012210 81 197 3.0 4.0 0.23 0.00 0.00 74 1011.0
20260503012110 81 197 3.0 4.0 0.23 0.00 0.00 74 1011.0
20260503010210 81 197 3.0 4.0 0.42 0.00 0.00 74 1011.0
20260503010109 81 197 3.0 4.0 0.42 0.00 0.00 74 1011.0
20260503004209 81 197 3.0 4.0 0.13 0.00 0.00 74 1011.0
20260503004109 81 197 3.0 4.0 0.13 0.00 0.00 74 1011.0
20260503002209 81 197 3.0 4.0 0.15 0.00 0.00 74 1010.0
20260503002108 81 197 3.0 4.0 0.15 0.00 0.00 74 1010.0
20260503000208 81 197 3.0 4.0 0.15 0.00 0.00 74 1010.0
20260503000107 81 197 3.0 4.0 0.15 0.00 0.00 74 1010.0
20260502234207 81 197 3.0 4.0 0.07 0.00 0.00 74 1010.0
20260502234107 81 197 3.0 4.0 0.07 0.00 0.00 74 1010.0
20260502232207 81 197 3.0 4.0 0.12 0.00 0.00 74 1010.0
20260502232106 81 197 3.0 4.0 0.12 0.00 0.00 74 1010.0
20260502230206 81 197 3.0 4.0 0.12 0.00 0.00 74 1010.0
20260502230106 81 197 3.0 4.0 0.12 0.00 0.00 74 1010.0
20260502224205 81 197 3.0 4.0 0.05 0.00 0.00 74 1010.0
20260502224105 81 197 3.0 4.0 0.05 0.00 0.00 74 1010.0
20260502222205 81 197 3.0 4.0 0.12 0.00 0.00 74 1009.0
20260502222105 81 197 3.0 4.0 0.12 0.00 0.00 74 1009.0
20260502220205 81 197 3.0 4.0 0.03 0.00 0.00 74 1009.0
20260502220104 81 197 3.0 4.0 0.03 0.00 0.00 74 1009.0
20260502214204 81 197 3.0 4.0 0.02 0.00 0.00 74 1009.0
20260502214104 81 197 3.0 4.0 0.02 0.00 0.00 74 1009.0
20260502212203 81 197 3.0 4.0 0.00 0.00 0.00 74 1008.0
20260502212103 81 197 3.0 4.0 0.00 0.00 0.00 74 1008.0
20260502210203 81 197 3.0 4.0 0.01 0.00 0.00 74 1008.0
20260502204202 87 20 10.0 10.0 0.00 0.00 0.00 56 1008.0
20260502204102 87 20 10.0 10.0 0.00 0.00 0.00 56 1008.0
20260502202201 87 20 10.0 10.0 0.01 0.00 0.00 56 1008.0
20260502202101 87 20 10.0 10.0 0.01 0.00 0.00 56 1008.0
20260502200201 87 20 10.0 10.0 0.04 0.00 0.00 56 1008.0
20260502200101 87 20 10.0 10.0 0.04 0.00 0.00 56 1008.0
20260502194200 87 20 10.0 10.0 0.05 0.00 0.00 56 1008.0
20260502194100 87 20 10.0 10.0 0.05 0.00 0.00 56 1008.0
20260502192200 87 20 10.0 10.0 0.01 0.00 0.00 56 1008.0
20260502192100 87 20 10.0 10.0 0.01 0.00 0.00 56 1008.0
20260502190159 87 20 10.0 10.0 0.00 0.00 0.00 56 1008.0
20260502190059 87 20 10.0 10.0 0.00 0.00 0.00 56 1008.0
20260502184159 87 20 10.0 10.0 0.00 0.00 0.00 56 1008.0
20260502184059 87 20 10.0 10.0 0.00 0.00 0.00 56 1008.0
20260502182158 87 20 10.0 10.0 0.00 0.00 0.00 56 1009.0
20260502182058 87 20 10.0 10.0 0.00 0.00 0.00 56 1009.0
20260502180158 87 20 10.0 10.0 0.00 0.00 0.00 56 1009.0
20260502170156 86 5 12.0 12.0 0.00 0.00 0.00 56 1010.0
20260502164156 86 5 12.0 12.0 0.00 0.00 0.00 58 1010.0
20260502164056 86 5 12.0 12.0 0.00 0.00 0.00 58 1010.0
20260502162156 86 358 11.0 12.0 0.00 0.00 0.00 61 1010.0
20260502162055 86 358 11.0 12.0 0.00 0.00 0.00 61 1010.0
20260502160155 86 358 11.0 12.0 0.00 0.00 0.00 60 1010.0
20260502152154 82 346 10.0 13.0 0.00 0.00 0.00 73 1010.0
20260502152054 82 346 10.0 13.0 0.00 0.00 0.00 73 1010.0
20260502150153 83 346 10.0 13.0 0.00 0.00 0.00 67 1010.0
20260502130151 81 323 4.0 8.0 0.00 0.00 0.00 74 1010.0
20260502122150 81 323 4.0 8.0 0.00 0.00 0.00 74 1010.0
20260502122049 81 323 4.0 8.0 0.00 0.00 0.00 74 1010.0
20260502120149 81 323 4.0 8.0 0.00 0.00 0.00 74 1010.0
20260502114149 81 323 4.0 8.0 0.00 0.00 0.00 74 1009.0
20260502114049 81 323 4.0 8.0 0.00 0.00 0.00 74 1009.0
20260502112148 81 323 4.0 8.0 0.00 0.00 0.00 74 1009.0
20260502112048 81 323 4.0 8.0 0.00 0.00 0.00 74 1009.0
20260502110148 81 323 4.0 8.0 0.00 0.00 0.00 74 1009.0
20260502110048 81 323 4.0 8.0 0.00 0.00 0.00 74 1009.0
20260502104148 81 323 4.0 8.0 0.00 0.00 0.00 74 1009.0
20260502104047 81 323 4.0 8.0 0.00 0.00 0.00 74 1009.0
20260502102147 81 323 4.0 8.0 0.00 0.00 0.00 74 1008.0
20260502102046 81 323 4.0 8.0 0.00 0.00 0.00 74 1008.0
20260502100146 81 323 4.0 8.0 0.00 0.00 0.00 74 1008.0
20260502090145 81 323 4.0 8.0 0.00 0.00 0.00 74 1008.0
20260502070142 81 323 4.0 8.0 0.00 0.00 0.00 74 1009.0
20260502070042 81 323 4.0 8.0 0.00 0.00 0.00 74 1009.0
20260502064142 81 323 4.0 8.0 0.00 0.00 0.00 74 1009.0
20260502064042 81 323 4.0 8.0 0.00 0.00 0.00 74 1009.0
20260502062142 81 323 4.0 8.0 0.00 0.00 0.00 74 1009.0
20260502062041 81 323 4.0 8.0 0.00 0.00 0.00 74 1009.0
20260502060141 81 323 4.0 8.0 0.00 0.00 0.00 74 1009.0
20260502060040 81 323 4.0 8.0 0.00 0.00 0.00 74 1009.0
20260502054141 81 323 4.0 8.0 0.00 0.00 0.00 74 1009.0
20260502054040 81 323 4.0 8.0 0.00 0.00 0.00 74 1009.0
20260502052140 81 323 4.0 8.0 0.00 0.00 0.00 74 1010.0
20260502052040 81 323 4.0 8.0 0.00 0.00 0.00 74 1010.0
20260502050139 81 323 4.0 8.0 0.00 0.00 0.00 74 1010.0
20260502050039 81 323 4.0 8.0 0.00 0.00 0.00 74 1010.0
20260502044139 81 323 4.0 8.0 0.00 0.00 0.00 74 1010.0
20260502044039 81 323 4.0 8.0 0.00 0.00 0.00 74 1010.0
20260502042138 81 323 4.0 8.0 0.00 0.00 0.00 74 1010.0
20260502042038 81 323 4.0 8.0 0.00 0.00 0.00 74 1010.0
20260502040138 81 323 4.0 8.0 0.00 0.00 0.00 74 1010.0
20260502040038 81 323 4.0 8.0 0.00 0.00 0.00 74 1010.0
20260502034137 81 323 4.0 8.0 0.00 0.00 0.00 74 1010.0
20260502034037 81 323 4.0 8.0 0.00 0.00 0.00 74 1010.0
20260502032137 81 323 4.0 8.0 0.00 0.00 0.00 74 1010.0
20260502032037 81 323 4.0 8.0 0.00 0.00 0.00 74 1010.0
20260502030136 81 323 4.0 8.0 0.00 0.00 0.00 74 1010.0
20260502030036 81 323 4.0 8.0 0.00 0.00 0.00 74 1010.0
20260502024136 81 323 4.0 8.0 0.00 0.00 0.00 74 1010.0
20260502024036 81 323 4.0 8.0 0.00 0.00 0.00 74 1010.0